This is the latest recevied weather packets stored in our database for station/object DL9TPA-1. If no packets are shown the sender has not sent any weather packets the latest 10 day(s).
| Time | Temp. | Humidity | Pressure | Rain* | Wind** | Luminosity | Snow |
|---|---|---|---|---|---|---|---|
| 1777708712 | 26.11° C | 39% | 1022.7 hPa | 0 mm | - | - | - |
| 1777708107 | 25.56° C | 42% | 1022.8 hPa | 0 mm | - | - | - |
| 1777707508 | 25° C | 42% | 1022.8 hPa | 0 mm | - | - | - |
| 1777706903 | 24.44° C | 43% | 1022.9 hPa | 0 mm | - | - | - |
| 1777706305 | 23.89° C | 42% | 1022.9 hPa | 0 mm | - | - | - |
| 1777705698 | 23.33° C | 43% | 1023 hPa | 0 mm | - | - | - |
| 1777705096 | 22.78° C | 44% | 1022.9 hPa | 0 mm | - | - | - |
| 1777704496 | 22.22° C | 44% | 1023 hPa | 0 mm | - | - | - |
| 1777703894 | 21.11° C | 46% | 1023.1 hPa | 0 mm | - | - | - |
| 1777703295 | 20° C | 48% | 1023.1 hPa | 0 mm | - | - | - |
| 1777702690 | 18.89° C | 50% | 1023.1 hPa | 0 mm | - | - | - |
| 1777702089 | 18.33° C | 51% | 1023.1 hPa | 0 mm | - | - | - |
| 1777701487 | 17.22° C | 55% | 1023.2 hPa | 0 mm | - | - | - |
| 1777700884 | 16.11° C | 56% | 1023.2 hPa | 0 mm | - | - | - |
| 1777700282 | 15.56° C | 58% | 1023.1 hPa | 0 mm | - | - | - |
| 1777699679 | 14.44° C | 61% | 1023.2 hPa | 0 mm | - | - | - |
| 1777699077 | 12.78° C | 65% | 1023.1 hPa | 0 mm | - | - | - |
| 1777698477 | 11.67° C | 68% | 1023.2 hPa | 0 mm | - | - | - |
| 1777697876 | 10.56° C | 73% | 1023.2 hPa | 0 mm | - | - | - |
| 1777697271 | 9.44° C | 76% | 1023.2 hPa | 0 mm | - | - | - |
| 1777696670 | 8.33° C | 79% | 1023.2 hPa | 0 mm | - | - | - |
| 1777696068 | 7.22° C | 78% | 1023.1 hPa | 0 mm | - | - | - |
| 1777695467 | 7.22° C | 78% | 1023.2 hPa | 0 mm | - | - | - |
| 1777694865 | 7.22° C | 78% | 1023.2 hPa | 0 mm | - | - | - |
| 1777694261 | 7.22° C | 77% | 1023.2 hPa | 0 mm | - | - | - |
* Rain latest hour (hover to see other rain measurements)
** Current wind speed in m/s (hover to see current wind gust speed)